Tracking 30990 objects as of 8-Jul-2025
HD Live streaming from Space Station
objects crossing your sky now

NOAA 17 DEB

Track NOAA 17 DEB now!
10-day predictions


NORAD ID: 48722
Int'l Code: 2002-032BG
Perigee: 649.7 km
Apogee: 666.4 km
Inclination: 98.7 °
Period: 97.7 minutes
Semi major axis: 7029 km
RCS: Unknown
Launch date: June 24, 2002
Source: United States (US)
Launch site: AIR FORCE WESTERN TEST RANGE (AFWTR)

Note: This is SATELLITE DEBRIS
Your satellite tracking list
Your tracking list is empty




NASA's NSSDC Master Catalog

Two Line Element Set (TLE):
1 48722U 02032BF  25188.83569872  .00011814  00000-0  18353-2 0  9999
2 48722  98.7116 189.0013 0011918 318.2138  41.8156 14.73193918226927
Source of the keplerian elements: AFSPC